SCP
0 0 0 0 0 0 0 0 0 0 0 0 0 0 0 0 0 0 0 0 0 0
0 0 0 0 0 0 0 0 0 0 0 0 0 0 0 0 0 0 0 0 0 0
0 0 0 0 0 0 0 0 0 0 0 0 0 0 0 0 0 0 0 0 0 0
0 0 0 0 0 0 0 0 0 0 0 0 0 0 0 0 0 0 0 0 0 0
0 0 0 0 0 0 0 0 0 0 0 0 0 0 0 0 0 0 0 0 0 0
0 0 0 0 0 0 0 0 0 0 0 0 0 0 0 0 0 0 0 0 0 0
0 0 0 0 0 0 0 0 0 0 0 0 0 0 0 0 0 0 0 0 0 0
0 0 0 0 0 0 0 0 0 0 0 0 0 0 0 0 0 0 0 0 0 0
0 0 0 0 0 0 0 0 0 0 0 0 0 0 0 0 0 0 0 0 0 0
0 0 0 0 0 0 0 0 0 0 0 0 0 0 0 0 0 0 0 0 0 0
0 0 0 0 0 0 0 0 0 0 0 0 0 0 0 0 0 0 0 0 0 0
0 0 0 0 0 0 0 0 0 0 0 0 0 0 0 0 0 0 0 0 0 0
0 0 0 0 0 0 0 0 0 0 0 0 0 0 0 0 0 0 0 0 0 0
0 0 0 0 0 0 0 0 0 0 0 0 0 0 0 0 0 0 0 0 0 0
Wind_Speed_500mb
28 28 26 23 22 22 21 22 26 27 25 23 22 21 20 19 18 17 16 15 14 15
27 27 27 24 21 20 20 22 25 25 24 23 23 23 22 20 18 18 18 18 18 19
28 28 27 25 23 21 21 22 25 25 25 24 24 24 23 22 20 21 20 21 21 21
30 30 28 26 24 23 22 22 23 24 25 24 24 23 25 25 24 25 24 23 24 24
32 31 30 29 27 26 25 23 24 23 24 24 25 25 26 26 26 28 29 27 28 27
30 31 30 30 29 27 26 25 24 24 25 26 26 28 28 30 30 31 32 32 32 31
32 34 33 32 31 30 28 27 26 25 26 27 27 27 29 30 31 31 31 31 32 33
34 35 35 32 30 30 29 27 26 25 25 25 26 27 27 29 32 34 34 32 31 31
35 35 37 36 34 32 30 27 27 27 29 30 29 28 29 31 32 33 34 34 33 31
38 37 39 38 36 34 31 30 31 34 36 36 35 33 33 34 35 35 35 36 34 32
38 37 38 37 36 35 35 35 37 38 39 39 34 35 36 38 40 42 40 39 38 38
37 38 38 38 36 34 36 41 46 45 42 42 41 39 38 39 40 42 42 41 42 43
36 39 40 38 35 40 48 48 42 40 38 38 38 32 35 38 43 46 49 50 51 51
39 40 39 37 42 47 46 44 45 44 45 47 45 44 43 43 48 52 55 57 59 58
Wind_Direction_500mb
339 340 340 330 315 307 298 286 287 296 302 307 312 314 315 316 316 315 315 312 301 282
338 341 342 338 326 315 306 301 300 302 303 304 306 306 308 308 308 304 306 305 302 296
334 336 339 339 336 325 317 309 304 304 303 302 301 302 302 305 304 302 302 300 297 298
336 331 329 327 326 325 320 311 308 306 306 306 302 300 299 300 300 298 299 299 295 295
334 328 321 318 319 318 316 315 312 309 306 304 303 301 299 296 295 293 294 296 294 295
324 323 315 309 310 313 314 316 313 310 308 306 304 301 298 297 295 293 295 297 297 297
317 321 316 310 307 308 309 310 310 310 309 308 307 305 302 299 299 298 298 296 294 293
304 309 308 305 301 301 303 306 309 312 311 312 312 310 313 310 308 308 308 306 304 301
291 299 304 304 300 298 298 301 306 310 311 312 312 310 308 305 305 306 307 307 306 304
283 293 296 294 291 293 294 297 302 303 302 301 301 304 302 301 301 301 301 302 302 302
277 287 291 289 290 291 292 295 301 304 303 301 304 304 304 302 302 301 301 300 301 300
275 284 292 288 289 292 295 299 301 300 298 299 302 304 304 304 302 300 301 302 302 301
275 284 286 286 289 297 300 300 302 303 298 298 301 302 302 302 299 296 298 296 293 292
274 279 282 284 292 298 295 293 296 298 301 302 304 306 306 304 299 300 299 297 297 296
Wind_Speed_850mb
28 28 26 23 22 22 21 22 26 27 25 23 22 21 20 19 18 17 16 15 14 15
27 27 27 24 21 20 20 22 25 25 24 23 23 23 22 20 18 18 18 18 18 19
28 28 27 25 23 21 21 22 25 25 25 24 24 24 23 22 20 21 20 21 21 21
30 30 28 26 24 23 22 22 23 24 25 24 24 23 25 25 24 25 24 23 24 24
32 31 30 29 27 26 25 23 24 23 24 24 25 25 26 26 26 28 29 27 28 27
30 31 30 30 29 27 26 25 24 24 25 26 26 28 28 30 30 31 32 32 32 31
32 34 33 32 31 30 28 27 26 25 26 27 27 27 29 30 31 31 31 31 32 33
34 35 35 32 30 30 29 27 26 25 25 25 26 27 27 29 32 34 34 32 31 31
35 35 37 36 34 32 30 27 27 27 29 30 29 28 29 31 32 33 34 34 33 31
38 37 39 38 36 34 31 30 31 34 36 36 35 33 33 34 35 35 35 36 34 32
38 37 38 37 36 35 35 35 37 38 39 39 34 35 36 38 40 42 40 39 38 38
37 38 38 38 36 34 36 41 46 45 42 42 41 39 38 39 40 42 42 41 42 43
36 39 40 38 35 40 48 48 42 40 38 38 38 32 35 38 43 46 49 50 51 51
39 40 39 37 42 47 46 44 45 44 45 47 45 44 43 43 48 52 55 57 59 58
Wind_Direction_850mb
339 340 340 330 315 307 298 286 287 296 302 307 312 314 315 316 316 315 315 312 301 282
338 341 342 338 326 315 306 301 300 302 303 304 306 306 308 308 308 304 306 305 302 296
334 336 339 339 336 325 317 309 304 304 303 302 301 302 302 305 304 302 302 300 297 298
336 331 329 327 326 325 320 311 308 306 306 306 302 300 299 300 300 298 299 299 295 295
334 328 321 318 319 318 316 315 312 309 306 304 303 301 299 296 295 293 294 296 294 295
324 323 315 309 310 313 314 316 313 310 308 306 304 301 298 297 295 293 295 297 297 297
317 321 316 310 307 308 309 310 310 310 309 308 307 305 302 299 299 298 298 296 294 293
304 309 308 305 301 301 303 306 309 312 311 312 312 310 313 310 308 308 308 306 304 301
291 299 304 304 300 298 298 301 306 310 311 312 312 310 308 305 305 306 307 307 306 304
283 293 296 294 291 293 294 297 302 303 302 301 301 304 302 301 301 301 301 302 302 302
277 287 291 289 290 291 292 295 301 304 303 301 304 304 304 302 302 301 301 300 301 300
275 284 292 288 289 292 295 299 301 300 298 299 302 304 304 304 302 300 301 302 302 301
275 284 286 286 289 297 300 300 302 303 298 298 301 302 302 302 299 296 298 296 293 292
274 279 282 284 292 298 295 293 296 298 301 302 304 306 306 304 299 300 299 297 297 296